Regional Weather Roundup
Issued by NWS

Home | Current Version | Previous Version | Graphics & Text | Print | Product List | Glossary On
Versions: 1 2 3 4 5 6 7 8 9 10 11 12 13 14 15 16 17 18 19 20 21 22 23 24 25 26 27 28 29 30 31 32 33 34 35 36 37 38 39 40 41 42 43 44 45 46 47 48 49 50
433
ASUS43 KBIS 280302
RWRND

NORTH DAKOTA REGIONAL WEATHER ROUNDUP
NATIONAL WEATHER SERVICE BISMARCK ND
900 PM CST MON FEB 27 2017

NOTE: "FAIR" INDICATES FEW OR NO CLOUDS BELOW 12,000 FEET WITH NO
SIGNIFICANT WEATHER AND/OR OBSTRUCTIONS TO VISIBILITY.


NDZ001>003-009>011-017-280400-
NORTHWEST NORTH DAKOTA

CITY           SKY/WX    TMP DP  RH WIND       PRES   REMARKS
WILLISTON      FAIR       7   3  84 CALM      29.85R
MINOT          FAIR       2  -2  83 N7        29.89R WCI -11
MINOT AFB      CLEAR     -1  -5  84 N3        29.89S
$$

NDZ018>021-031>035-040>046-280400-
SOUTHWEST NORTH DAKOTA

CITY           SKY/WX    TMP DP  RH WIND       PRES   REMARKS
BISMARCK       CLOUDY    21  16  81 NE8       29.85R WCI  11
DICKINSON      CLOUDY    14  11  87 NE7       29.77R WCI   4
GARRISON         N/A     -3  -6  87 N7        29.85F WCI -16
HETTINGER ARPT CLOUDY    19  15  84 NE16      29.77R WCI   4
$$

NDZ004>008-012>016-024-026-027-054-280400-
NORTHEAST NORTH DAKOTA

CITY           SKY/WX    TMP DP  RH WIND       PRES   REMARKS
GRAND FORKS    CLOUDY    18  10  71 N16       29.93R WCI   3
GRND FRKS AFB  CLOUDY    16  11  81 N14       29.93R WCI   2
DEVILS LAKE    FLURRIES  13  10  88 E8        29.90R WCI   2
$$

NDZ022-023-025-028>030-036>039-047>053-280400-
SOUTHEAST NORTH DAKOTA

CITY           SKY/WX    TMP DP  RH WIND       PRES   REMARKS
FARGO          CLOUDY    27  19  72 N17       29.85R WCI  14
JAMESTOWN      CLOUDY    23  19  85 NE14      29.84R WCI  11
$$





USA.gov is the U.S. government's official web portal to all federal, state and local government web resources and services.